When you browse on this site, cookies collect data to enhance your experience and personalize the content and advertising you see.
Visit our Privacy Policy to learn more. By continuing to use the site, you agree to this use of cookies and data.
  • In Österreich
  • Länderverzeichnis
  • Für 7 Tage
  • Wassertemperatur
  • Satellitenkarten
  • Wetterkarte
  • News
  • Widgets
  • user-avatar
    Anmelden

    Stündliche Wetter Benguela

    Heute, 18 Januar, Freitag

    Zeit Temperatur Niederschläge Wind Luftdruck Luftfeuchtigkeit
    00:00 +28°C° 0 mm 2 m/S 759 mmHg 67%
    01:00 +28°C° 0 mm 2 m/S 759 mmHg 66%
    02:00 +28°C° 0 mm 2 m/S 758 mmHg 66%
    03:00 +27°C° 0 mm 2 m/S 758 mmHg 66%
    04:00 +27°C° 0 mm 1 m/S 758 mmHg 66%
    05:00 +27°C° 0 mm 1 m/S 758 mmHg 66%
    06:00 +28°C° 0 mm 1 m/S 759 mmHg 65%
    07:00 +28°C° 0 mm 1 m/S 759 mmHg 65%
    08:00 +29°C° 0 mm 1 m/S 759 mmHg 57%
    09:00 +31°C° 0 mm 1 m/S 759 mmHg 50%
    10:00 +32°C° 0 mm 2 m/S 759 mmHg 43%
    11:00 +34°C° 0 mm 3 m/S 758 mmHg 42%
    12:00 +35°C° 0 mm 4 m/S 758 mmHg 40%
    13:00 +35°C° 0 mm 5 m/S 757 mmHg 39%
    14:00 +35°C° 0 mm 5 m/S 757 mmHg 41%
    15:00 +34°C° 0 mm 5 m/S 757 mmHg 44%
    16:00 +34°C° 0 mm 6 m/S 756 mmHg 46%
    17:00 +32°C° 0 mm 5 m/S 757 mmHg 52%
    18:00 +30°C° 0 mm 4 m/S 757 mmHg 58%
    19:00 +29°C° 0 mm 4 m/S 758 mmHg 64%
    20:00 +28°C° 0 mm 3 m/S 759 mmHg 66%
    21:00 +28°C° 0 mm 3 m/S 759 mmHg 68%
    22:00 +27°C° 0 mm 2 m/S 760 mmHg 70%
    23:00 +27°C° 0 mm 2 m/S 760 mmHg 70%

    Morgen, 19 Januar, Samstag

    Zeit Temperatur Niederschläge Wind Luftdruck Luftfeuchtigkeit
    00:00 +27°C° 0 mm 1 m/S 760 mmHg 70%
    01:00 +27°C° 0 mm 1 m/S 759 mmHg 70%
    02:00 +27°C° 0.2 mm 1 m/S 759 mmHg 72%
    03:00 +27°C° 0.2 mm 1 m/S 759 mmHg 73%
    04:00 +26°C° 0.2 mm 1 m/S 759 mmHg 75%
    05:00 +27°C° 0.1 mm 1 m/S 759 mmHg 74%
    06:00 +27°C° 0.1 mm 1 m/S 760 mmHg 74%
    07:00 +27°C° 0.1 mm 1 m/S 760 mmHg 74%
    08:00 +28°C° 0 mm 1 m/S 760 mmHg 69%
    09:00 +29°C° 0 mm 1 m/S 760 mmHg 63%
    10:00 +30°C° 0 mm 1 m/S 761 mmHg 57%
    11:00 +30°C° 0 mm 1 m/S 760 mmHg 56%
    12:00 +30°C° 0 mm 2 m/S 760 mmHg 56%
    13:00 +30°C° 0 mm 3 m/S 759 mmHg 55%
    14:00 +31°C° 0 mm 3 m/S 759 mmHg 55%
    15:00 +31°C° 0 mm 3 m/S 758 mmHg 55%
    16:00 +32°C° 0 mm 4 m/S 758 mmHg 55%
    17:00 +30°C° 0 mm 3 m/S 758 mmHg 60%
    18:00 +29°C° 0 mm 2 m/S 759 mmHg 64%
    19:00 +28°C° 0 mm 2 m/S 759 mmHg 69%
    20:00 +28°C° 0 mm 1 m/S 760 mmHg 71%
    21:00 +28°C° 0 mm 1 m/S 760 mmHg 73%
    22:00 +28°C° 0 mm 1 m/S 761 mmHg 75%
    23:00 +28°C° 0 mm 1 m/S 760 mmHg 75%

    übermorgen, 20 Januar, Sonntag

    Zeit Temperatur Niederschläge Wind Luftdruck Luftfeuchtigkeit
    00:00 +28°C° 0 mm 1 m/S 760 mmHg 74%
    01:00 +26°C° 0 mm 0 m/S 760 mmHg 74%
    02:00 +26°C° 0 mm 0 m/S 760 mmHg 74%
    03:00 +25°C° 0 mm 0 m/S 759 mmHg 74%
    04:00 +25°C° 0 mm 0 m/S 759 mmHg 75%
    05:00 +25°C° 0 mm 0 m/S 759 mmHg 74%
    06:00 +26°C° 0 mm 0 m/S 760 mmHg 73%
    07:00 +26°C° 0 mm 0 m/S 760 mmHg 72%
    08:00 +27°C° 0 mm 0 m/S 760 mmHg 66%
    09:00 +30°C° 0 mm 1 m/S 760 mmHg 60%
    10:00 +32°C° 0 mm 1 m/S 761 mmHg 55%
    11:00 +34°C° 0 mm 2 m/S 760 mmHg 52%
    12:00 +35°C° 0 mm 3 m/S 759 mmHg 49%
    13:00 +35°C° 0 mm 5 m/S 759 mmHg 46%
    14:00 +35°C° 0 mm 5 m/S 758 mmHg 48%
    15:00 +34°C° 0 mm 5 m/S 758 mmHg 51%
    16:00 +33°C° 0 mm 5 m/S 757 mmHg 54%
    17:00 +32°C° 0 mm 4 m/S 758 mmHg 59%
    18:00 +30°C° 0 mm 3 m/S 758 mmHg 64%
    19:00 +29°C° 0 mm 2 m/S 759 mmHg 69%
    20:00 +29°C° 0 mm 2 m/S 759 mmHg 70%
    21:00 +29°C° 0 mm 2 m/S 760 mmHg 71%
    22:00 +29°C° 0 mm 2 m/S 761 mmHg 72%
    23:00 +29°C° 0.2 mm 2 m/S 760 mmHg 73%

    21 Januar, Montag

    Zeit Temperatur Niederschläge Wind Luftdruck Luftfeuchtigkeit
    00:00 +28°C° 0.2 mm 2 m/S 760 mmHg 74%
    01:00 +28°C° 0.2 mm 2 m/S 760 mmHg 75%
    02:00 +28°C° 0.3 mm 2 m/S 760 mmHg 75%
    03:00 +28°C° 0.3 mm 2 m/S 759 mmHg 76%
    04:00 +28°C° 0.3 mm 2 m/S 759 mmHg 76%
    05:00 +28°C° 0.1 mm 2 m/S 759 mmHg 75%
    06:00 +28°C° 0.1 mm 2 m/S 760 mmHg 75%
    07:00 +28°C° 0.1 mm 2 m/S 760 mmHg 74%
    08:00 +29°C° 0 mm 2 m/S 760 mmHg 69%
    09:00 +30°C° 0 mm 2 m/S 761 mmHg 64%
    10:00 +31°C° 0 mm 2 m/S 761 mmHg 59%
    11:00 +33°C° 0 mm 3 m/S 760 mmHg 55%
    12:00 +34°C° 0 mm 4 m/S 759 mmHg 51%
    13:00 +35°C° 0 mm 4 m/S 758 mmHg 47%
    14:00 +35°C° 0 mm 5 m/S 758 mmHg 48%
    15:00 +34°C° 0 mm 5 m/S 757 mmHg 48%
    16:00 +34°C° 0 mm 5 m/S 757 mmHg 49%
    17:00 +33°C° 0 mm 5 m/S 757 mmHg 53%
    18:00 +32°C° 0 mm 4 m/S 758 mmHg 57%
    19:00 +29°C° 0 mm 4 m/S 759 mmHg 61%
    20:00 +29°C° 0 mm 3 m/S 759 mmHg 63%
    21:00 +29°C° 0 mm 3 m/S 760 mmHg 65%
    22:00 +28°C° 0 mm 3 m/S 760 mmHg 67%
    23:00 +28°C° 0.1 mm 2 m/S 760 mmHg 68%

    22 Januar, Dienstag

    Zeit Temperatur Niederschläge Wind Luftdruck Luftfeuchtigkeit
    00:00 +28°C° 0.1 mm 2 m/S 760 mmHg 69%
    01:00 +28°C° 0.1 mm 2 m/S 759 mmHg 70%
    02:00 +27°C° 0.7 mm 2 m/S 759 mmHg 72%
    03:00 +27°C° 0.7 mm 3 m/S 759 mmHg 73%
    04:00 +27°C° 0.7 mm 3 m/S 759 mmHg 74%
    05:00 +27°C° 0.4 mm 3 m/S 759 mmHg 74%
    06:00 +27°C° 0.4 mm 2 m/S 760 mmHg 74%
    07:00 +27°C° 0.4 mm 1 m/S 760 mmHg 74%
    08:00 +28°C° 0 mm 1 m/S 760 mmHg 71%
    09:00 +28°C° 0 mm 1 m/S 760 mmHg 68%
    10:00 +29°C° 0 mm 1 m/S 760 mmHg 65%
    11:00 +30°C° 0 mm 1 m/S 760 mmHg 62%
    12:00 +31°C° 0 mm 1 m/S 759 mmHg 58%
    13:00 +32°C° 0 mm 2 m/S 758 mmHg 55%
    14:00 +33°C° 0 mm 3 m/S 758 mmHg 54%
    15:00 +33°C° 0 mm 4 m/S 757 mmHg 54%
    16:00 +34°C° 0 mm 5 m/S 757 mmHg 53%
    17:00 +32°C° 0 mm 4 m/S 757 mmHg 59%
    18:00 +30°C° 0 mm 4 m/S 758 mmHg 64%
    19:00 +29°C° 0 mm 3 m/S 758 mmHg 70%
    20:00 +28°C° 0 mm 3 m/S 759 mmHg 72%
    21:00 +28°C° 0 mm 2 m/S 759 mmHg 73%
    22:00 +28°C° 0 mm 2 m/S 760 mmHg 74%
    23:00 +28°C° 0 mm 2 m/S 760 mmHg 75%

    23 Januar, Mittwoch

    Zeit Temperatur Niederschläge Wind Luftdruck Luftfeuchtigkeit
    00:00 +28°C° 0 mm 2 m/S 759 mmHg 76%
    01:00 +28°C° 0 mm 2 m/S 759 mmHg 76%
    02:00 +27°C° 0 mm 2 m/S 759 mmHg 77%
    03:00 +27°C° 0 mm 2 m/S 759 mmHg 79%
    04:00 +27°C° 0 mm 2 m/S 759 mmHg 80%
    05:00 +27°C° 0.1 mm 2 m/S 759 mmHg 79%
    06:00 +27°C° 0.1 mm 2 m/S 759 mmHg 79%
    07:00 +27°C° 0.1 mm 1 m/S 760 mmHg 79%
    08:00 +29°C° 0 mm 1 m/S 760 mmHg 70%
    09:00 +30°C° 0 mm 1 m/S 760 mmHg 62%
    10:00 +32°C° 0 mm 2 m/S 760 mmHg 54%
    11:00 +34°C° 0 mm 3 m/S 759 mmHg 52%
    12:00 +34°C° 0 mm 4 m/S 758 mmHg 51%
    13:00 +35°C° 0 mm 5 m/S 758 mmHg 50%
    14:00 +35°C° 0 mm 5 m/S 757 mmHg 52%
    15:00 +34°C° 0 mm 5 m/S 757 mmHg 54%
    16:00 +34°C° 0 mm 5 m/S 756 mmHg 56%
    17:00 +32°C° 0 mm 5 m/S 757 mmHg 61%
    18:00 +30°C° 0 mm 5 m/S 757 mmHg 65%
    19:00 +29°C° 0 mm 4 m/S 758 mmHg 70%
    20:00 +29°C° 0 mm 4 m/S 758 mmHg 71%
    21:00 +29°C° 0 mm 3 m/S 758 mmHg 71%
    22:00 +28°C° 0 mm 2 m/S 759 mmHg 72%
    23:00 +28°C° 0 mm 2 m/S 759 mmHg 74%
    Mehr zeigen